Flag for Germany Weather past 2 weeks in Ilmenau, Thuringia, Germany

Now
34 °F

Passing clouds.


Feels Like: 26 °F
Forecast: 30 / 34 °F
Wind: 10 mph from West

Location: Erfurt-Bindersleben

Current Time: Jan 27, 2015 at 6:05:28 PM

Latest Report: Jan 27, 2015 at 5:20 PM


Visibility: N/A

Pressure: 30.07 "Hg

Humidity: 93%

Dew point: 32 °F

Location of IlmenauLocation

Historic Weather in Ilmenau — Graph

°F

Ilmenau temperature yesterday

Maximum temperature yesterday: 36 °F (at 11:50 AM)
Minimum temperature yesterday: 32 °F (at 1:50 AM)
Average temperature yesterday: 34 °F

Past Weeks' High & Low Weather Summary

 TemperatureHumidityPressure
High52 °F (Jan 13, 3:50 PM)100% (Jan 16, 4:50 PM)30.30 "Hg (Jan 16, 4:50 PM)
Low21 °F (Jan 24, 8:20 AM)50% (Jan 13, 2:50 PM)29.59 "Hg (Jan 15, 4:50 PM)
Average34 °F90%29.94 "Hg
* Reported Jan 12 4:20 PM — Jan 27 4:50 PM, Ilmenau, Weather by CustomWeather, © 2014

Note: Actual official high and low records may vary slightly from our data, if they occured in-between our weather recording intervals... More about our weather records

Advertising

Ilmenau weather history for previous 24 hours

 ConditionsComfort  
Time TempWeatherWind HumidityBarometerVisibility
4:50 PM
Jan 27
36 °FScattered clouds.10 mph87%30.04 "HgN/A
4:20 PM36 °FScattered clouds.10 mph87%30.04 "HgN/A
3:50 PM36 °FScattered clouds.14 mph87%30.04 "HgN/A
3:20 PM36 °FBroken clouds.13 mph87%30.04 "HgN/A
2:50 PM37 °FBroken clouds.15 mph81%30.04 "HgN/A
2:20 PM37 °FScattered clouds.14 mph81%30.04 "HgN/A
1:50 PM36 °FBroken clouds.13 mph87%30.04 "HgN/A
1:20 PM36 °FScattered clouds.14 mph87%30.04 "HgN/A
12:50 PM36 °FScattered clouds.12 mph87%30.04 "HgN/A
12:20 PM36 °FSnow flurries. Partly sunny.14 mph87%30.04 "HgN/A
11:50 AM36 °FPartly sunny.14 mph87%30.04 "HgN/A
11:20 AM34 °FBroken clouds.10 mph93%30.04 "HgN/A
10:50 AM34 °FScattered clouds.12 mph93%30.04 "HgN/A
10:20 AM34 °FSnow flurries. Partly sunny.14 mph93%30.04 "HgN/A
9:50 AM34 °FBroken clouds.14 mph93%30.04 "HgN/A
9:20 AM34 °FSnow flurries. Partly sunny.15 mph93%30.01 "Hg5 mi
8:50 AM34 °FScattered clouds.16 mph93%30.01 "HgN/A
8:20 AM34 °FScattered clouds.15 mph93%30.01 "HgN/A
7:50 AM32 °FPassing clouds.13 mph100%30.01 "HgN/A
7:20 AM32 °FPassing clouds.14 mph100%29.98 "HgN/A
6:50 AM34 °FPassing clouds.14 mph93%30.01 "HgN/A
6:20 AM34 °FPassing clouds.7 mph93%30.01 "HgN/A
5:50 AM34 °FPassing clouds.13 mph93%29.98 "HgN/A
5:20 AM34 °FPassing clouds.8 mph93%29.98 "HgN/A
4:50 AM34 °FPassing clouds.12 mph93%29.98 "HgN/A
4:20 AM34 °FPassing clouds.12 mph93%29.95 "HgN/A
3:50 AM34 °FPartly cloudy.13 mph93%29.95 "HgN/A
3:20 AM34 °FPassing clouds.9 mph93%29.95 "HgN/A
2:50 AM34 °FPassing clouds.14 mph100%29.95 "HgN/A
2:20 AM34 °FPartly cloudy.13 mph100%29.95 "HgN/A
1:50 AM34 °FLight rain. Partly cloudy.13 mph100%29.95 "HgN/A
1:20 AM34 °FPassing clouds.15 mph100%29.95 "HgN/A
12:50 AM34 °FPassing clouds.15 mph100%29.95 "HgN/A
12:20 AM34 °FPassing clouds.14 mph100%29.95 "HgN/A
11:50 PM
Jan 26
34 °FPartly cloudy.13 mph100%29.95 "HgN/A
11:20 PM34 °FLight rain. Partly cloudy.10 mph100%29.95 "HgN/A
10:50 PM34 °FLight rain. Partly cloudy.13 mph100%29.95 "HgN/A
10:20 PM34 °FPartly cloudy.14 mph100%29.95 "HgN/A
9:50 PM36 °FLight snow. Partly cloudy.13 mph93%29.95 "HgN/A
9:20 PM34 °FLight snow. Partly cloudy.14 mph100%29.95 "HgN/A
8:50 PM32 °FLight snow. Partly cloudy.13 mph100%29.95 "HgN/A
8:20 PM32 °FSnow. Partly cloudy.14 mph100%29.95 "Hg2 mi
7:50 PM34 °FLight snow. Passing clouds.16 mph93%29.95 "HgN/A
7:20 PM34 °FLight snow. Partly cloudy.12 mph93%29.95 "HgN/A
6:50 PM34 °FLight snow. Mostly cloudy.10 mph100%29.95 "HgN/A
6:20 PM32 °FLight snow. Mostly cloudy.10 mph100%29.95 "HgN/A
Weather by CustomWeather, © 2014

See weather overviewHow to use our weather pages